STARLINK-2219, 48569

Orbit data source: Space-Track

STARLINK-2219, 48569 is a payload satellite owned by SpaceX/Seattle (US) in LEO that was launched on Sat, 15 May 2021 UTC via an FALCON 9 launch vehicle from the Air Force Eastern Test Range (AFETR). Payload-class satellites include a variety of spacecraft equipped with specific instruments for various scientific and technological missions. These include communications satellites like Starlink; space stations such as the ISS; scientific satellites like the Hubble; Earth observation satellites from companies like Planet Labs, Umbra, and HawkEye 360; GPS; miniature CubeSats for education and research; and military/defense satellites.

Loading next visibility...
Identifier
48569, 2021-041S
Orbit
LEO
Country
Flag of USUS
Related business
Manufacturer
SpaceX/Seattle
Mission
Operational Commercial Communications
Bus & Motor
STARLINK, Unknown motor
Mass
260 kg wet, ~248 kg dry
Launch date (UTC)
2021-05-15 (5 years ago)
Launch vehicle
FALCON 9
Launch site
Air Force Eastern Test Range (AFETR)
Object type
Payload
Rocket body
Debris
Shape & HBR
Box + 1 Pan, 10.1 m
Radar Cross Section
13.562 m², Large (>1 m²)

Expand to show TLE details & history
Last TLE update: 3 days ago

TLE from 3 days ago
0 STARLINK-2219
1 48569U 21041S   26170.87860190  .00000054  00000-0  13511-4 0  9999
2 48569  53.1597  11.3146 0000890  91.1072 269.0031 15.31698196280939
Epoch: 2026-06-19T21:05Z
TLE epoch observation values (Epoch: 2026-06-19T21:05:11.204Z)
Latitude
-0.00004°
Longitude
146.91663°
Altitude
471.656 km
Speed
7.631 km/s
True Right ascension
00h 45m 15s
True Declination
0° 00' 00"
Sunlit
Object was in daylight at epoch
Visualization orbit readout
Latitude
Unknown
Longitude
Unknown
Altitude
Unknown
Speed
Unknown
Apparent Right ascension
Unknown
Apparent Declination
Unknown
Sunlit
N/A
Visualization observer readout
Local Sidereal Time
21:38:25
Azimuth
Unknown
Elevation
Unknown
Doppler factor
Unknown
Orbital elements
Apogee altitude
471.612 km
Perigee altitude
470.392 km
Semi-major axis
6,849.139 km
Eccentricity
0.00009
Inclination
53.1597°
RAAN
11.3146°
Arg. of periapsis
91.1072°
True anomaly
268.9929°
Mean anomaly
269.0031°
Eccentric anomaly
268.998°
Mean motion
3.82903 °/min
Orbital period
94.02 mins
BSTAR
0.000013511
Loading maneuver chart data...
Computing Atmospheric mass density...
Loading historical data...
Loading historical data...
Loading historical data...
Loading historical data...
Loading historical data...
Loading historical data...
Loading historical data...

Documentation

Showing up to 5 results
|